Location: Vancouver
(49.2500°N, 123.1330°W)
Time: 18:05:39
(UTC-07:00)

Oscar 11 - Visible Passes

Search period start: 18 April 2015 00:00
Search period end: 28 April 2015 00:00
Orbit: 617 x 627 km, 97.8° (Epoch: 17 April)

Date Brightness Start Highest point End Pass type
(mag) Time Alt. Az. Time Alt. Az. Time Alt. Az.
18 Apr 7.7 21:19:40 15° SE 21:22:52 41° ENE 21:27:00 10° N visible
18 Apr 9.0 22:56:52 16° SW 22:59:14 24° W 23:02:47 10° NW visible
19 Apr 7.2 21:37:40 19° SSE 21:40:42 60° ENE 21:45:02 10° N visible
19 Apr 9.5 23:14:52 11° SW 23:17:20 17° W 23:20:05 10° NW visible
20 Apr 7.0 21:55:39 21° SSE 21:58:34 89° ENE 22:02:58 10° NNW visible
20 Apr 9.8 23:34:04 10° WSW 23:35:30 11° W 23:36:42 10° WNW visible
21 Apr 7.5 22:13:39 21° S 22:16:28 61° W 22:20:50 10° NNW visible
22 Apr 8.4 20:54:52 10° ESE 20:58:24 25° ENE 21:02:02 10° N visible
22 Apr 8.2 22:31:38 19° SSW 22:34:25 40° W 22:38:34 10° NNW visible
23 Apr 7.9 21:12:25 11° SE 21:16:10 36° ENE 21:20:12 10° N visible
23 Apr 8.8 22:49:37 15° SW 22:52:26 28° W 22:56:11 10° NW visible
24 Apr 7.4 21:30:24 14° SE 21:33:58 52° ENE 21:38:15 10° N visible
24 Apr 9.3 23:07:37 11° SW 23:10:30 19° W 23:13:36 10° NW visible
25 Apr 7.0 21:48:24 16° SSE 21:51:49 78° ENE 21:56:12 10° N visible
25 Apr 9.7 23:26:29 10° WSW 23:28:37 13° W 23:30:34 10° WNW visible
26 Apr 7.3 22:06:23 17° S 22:09:41 71° WSW 22:14:04 10° NNW visible
27 Apr 7.9 22:24:21 16° S 22:27:36 47° W 22:31:51 10° NNW visible
